FDX137 CYWG-KMEM

Flight info

Callsign FDX137
Flight time 2h 15m
Altitude 33000
Route KAVKI IKLUG HML FAR TTOSS LMN SAAGS MAHER WHOLL BRBBQ3
Aircraft A306/H-VGDW/C

Departure

Time 2026-05-08 20:05
Airport Winnipeg / James Armstrong Richardson International Airport (CYWG)

Arrival

Time 2026-05-08 22:21
Airport Memphis International Airport (KMEM)
Time Latitude Longitude Altitude Speed Heading
2026-05-08 19:47 49.89705 -97.22111 787 ft 0 kts
2026-05-08 19:58 49.89688 -97.22112 787 ft 2 kts
2026-05-08 19:58 49.89672 -97.22113 787 ft 2 kts
2026-05-08 19:59 49.89655 -97.22113 787 ft 2 kts 335°
2026-05-08 19:59 49.89648 -97.22101 787 ft 0 kts 275°
2026-05-08 19:59 49.89648 -97.22100 787 ft 0 kts 275°
2026-05-08 20:02 49.89649 -97.22113 787 ft 3 kts 275°
2026-05-08 20:02 49.89652 -97.22163 788 ft 8 kts 273°
2026-05-08 20:03 49.89654 -97.22243 789 ft 8 kts 273°
2026-05-08 20:03 49.89657 -97.22322 789 ft 9 kts 271°
2026-05-08 20:03 49.89663 -97.22432 789 ft 10 kts 280°
2026-05-08 20:03 49.89669 -97.22536 788 ft 9 kts 255°
2026-05-08 20:04 49.89623 -97.22627 786 ft 15 kts 229°
2026-05-08 20:04 49.89552 -97.22756 785 ft 14 kts 239°
2026-05-08 20:04 49.89582 -97.22879 784 ft 12 kts 309°
2026-05-08 20:04 49.89690 -97.23031 781 ft 43 kts 319°
2026-05-08 20:05 49.90068 -97.23541 793 ft 99 kts 319°
2026-05-08 20:05 49.90706 -97.24412 795 ft 147 kts 316°
2026-05-08 20:05 49.91528 -97.25633 1109 ft 174 kts 317°
2026-05-08 20:05 49.92482 -97.27045 1606 ft 200 kts 316°
2026-05-08 20:06 49.93526 -97.28478 2668 ft 199 kts 318°
2026-05-08 20:06 49.94553 -97.29899 3875 ft 192 kts 318°
2026-05-08 20:06 49.95510 -97.31242 5137 ft 179 kts 316°
2026-05-08 20:06 49.96064 -97.32203 5703 ft 183 kts 307°
2026-05-08 20:07 49.96671 -97.34864 6167 ft 222 kts 274°
2026-05-08 20:07 49.96122 -97.37296 6470 ft 261 kts 236°
2026-05-08 20:07 49.94567 -97.38920 7130 ft 283 kts 202°
2026-05-08 20:07 49.92572 -97.39302 7914 ft 295 kts 182°
2026-05-08 20:08 49.91197 -97.39138 8386 ft 302 kts 176°
2026-05-08 20:08 49.89092 -97.38609 9131 ft 309 kts 173°
2026-05-08 20:08 49.86948 -97.37994 9845 ft 316 kts 174°
2026-05-08 20:08 49.84776 -97.37441 10399 ft 326 kts 175°
2026-05-08 20:09 49.82460 -97.36972 10679 ft 343 kts 178°
2026-05-08 20:09 49.80026 -97.36588 10954 ft 359 kts 179°
2026-05-08 20:09 49.77499 -97.36257 11199 ft 370 kts 179°
2026-05-08 20:09 49.74875 -97.35951 11461 ft 385 kts 180°
2026-05-08 20:10 49.72159 -97.35645 11727 ft 397 kts 180°
2026-05-08 20:10 49.69404 -97.35330 12179 ft 404 kts 180°
2026-05-08 20:10 49.66581 -97.34997 12718 ft 408 kts 179°
2026-05-08 20:10 49.63734 -97.34654 13298 ft 411 kts 179°
2026-05-08 20:11 49.60864 -97.34306 13823 ft 415 kts 180°
2026-05-08 20:11 49.57982 -97.34338 14312 ft 413 kts 190°
2026-05-08 20:11 49.55119 -97.34842 14809 ft 415 kts 193°
2026-05-08 20:11 49.52256 -97.35524 15318 ft 416 kts 195°
2026-05-08 20:12 49.49422 -97.36296 15793 ft 419 kts 196°
2026-05-08 20:12 49.46540 -97.37125 16296 ft 423 kts 196°
2026-05-08 20:12 49.43639 -97.37966 16802 ft 426 kts 196°
2026-05-08 20:12 49.40705 -97.38809 17308 ft 429 kts 196°
2026-05-08 20:13 49.37749 -97.39645 17800 ft 432 kts 196°
2026-05-08 20:13 49.34768 -97.40477 18245 ft 436 kts 196°
2026-05-08 20:13 49.31810 -97.41294 18658 ft 438 kts 196°
2026-05-08 20:13 49.28790 -97.42123 19075 ft 441 kts 196°
2026-05-08 20:14 49.25763 -97.42952 19443 ft 444 kts 195°
2026-05-08 20:14 49.22716 -97.43785 19839 ft 446 kts 195°
2026-05-08 20:14 49.19649 -97.44622 20235 ft 448 kts 195°
2026-05-08 20:14 49.16544 -97.45332 20608 ft 454 kts 190°
2026-05-08 20:15 49.13348 -97.45378 20988 ft 463 kts 180°
2026-05-08 20:15 49.10190 -97.44518 21354 ft 472 kts 167°
2026-05-08 20:15 49.07120 -97.42590 21725 ft 480 kts 153°
2026-05-08 20:15 49.04382 -97.39628 22085 ft 484 kts 140°
2026-05-08 20:16 49.01905 -97.36103 22452 ft 487 kts 135°
2026-05-08 20:16 48.99577 -97.32434 22790 ft 489 kts 133°
2026-05-08 20:16 48.97255 -97.28612 23117 ft 492 kts 132°
2026-05-08 20:16 48.94935 -97.24764 23425 ft 494 kts 133°
2026-05-08 20:17 48.92592 -97.20912 23697 ft 496 kts 133°
2026-05-08 20:17 48.90080 -97.17300 23957 ft 498 kts 141°
2026-05-08 20:17 48.87223 -97.14315 24220 ft 497 kts 153°
2026-05-08 20:17 48.84111 -97.12193 24464 ft 495 kts 164°
2026-05-08 20:18 48.80768 -97.10985 24722 ft 492 kts 175°
2026-05-08 20:18 48.77364 -97.10302 24974 ft 492 kts 178°
2026-05-08 20:18 48.73935 -97.09825 25216 ft 493 kts 180°
2026-05-08 20:18 48.70540 -97.09443 25466 ft 494 kts 180°
2026-05-08 20:19 48.67095 -97.09074 25700 ft 496 kts 180°
2026-05-08 20:19 48.63640 -97.08691 25938 ft 498 kts 180°
2026-05-08 20:19 48.60215 -97.08288 26175 ft 500 kts 180°
2026-05-08 20:19 48.56731 -97.07858 26392 ft 502 kts 179°
2026-05-08 20:20 48.53238 -97.07413 26614 ft 503 kts 179°
2026-05-08 20:20 48.49732 -97.06961 26833 ft 505 kts 179°
2026-05-08 20:20 48.46263 -97.06510 27032 ft 507 kts 179°
2026-05-08 20:20 48.42738 -97.06051 27216 ft 508 kts 179°
2026-05-08 20:21 48.39199 -97.05593 27391 ft 510 kts 179°
2026-05-08 20:21 48.35643 -97.05133 27588 ft 512 kts 179°
2026-05-08 20:21 48.32083 -97.04675 27781 ft 513 kts 179°
2026-05-08 20:21 48.28569 -97.04223 28044 ft 513 kts 179°
2026-05-08 20:22 48.25012 -97.03765 28390 ft 511 kts 179°
2026-05-08 20:22 48.21460 -97.03308 28652 ft 510 kts 179°
2026-05-08 20:22 48.17913 -97.02854 28934 ft 510 kts 179°
2026-05-08 20:22 48.14417 -97.02408 29209 ft 510 kts 179°
2026-05-08 20:23 48.10878 -97.01957 29486 ft 509 kts 179°
2026-05-08 20:23 48.07340 -97.01507 29757 ft 509 kts 179°
2026-05-08 20:23 48.03805 -97.01058 30001 ft 509 kts 179°
2026-05-08 20:23 48.00273 -97.00609 30209 ft 508 kts 179°
2026-05-08 20:24 47.96739 -97.00161 30441 ft 508 kts 179°
2026-05-08 20:24 47.93252 -96.99720 30649 ft 508 kts 179°
2026-05-08 20:24 47.89713 -96.99273 30865 ft 509 kts 179°
2026-05-08 20:24 47.86184 -96.98828 31089 ft 509 kts 179°
2026-05-08 20:25 47.82650 -96.98382 31314 ft 508 kts 179°
2026-05-08 20:25 47.79164 -96.97944 31517 ft 509 kts 179°
2026-05-08 20:25 47.75622 -96.97498 31668 ft 510 kts 179°
2026-05-08 20:25 47.72079 -96.97053 31882 ft 511 kts 179°
2026-05-08 20:26 47.68530 -96.96608 32113 ft 510 kts 179°
2026-05-08 20:26 47.64985 -96.96163 32331 ft 510 kts 179°
2026-05-08 20:26 47.61439 -96.95719 32550 ft 510 kts 179°
2026-05-08 20:26 47.57946 -96.95283 32763 ft 510 kts 179°
2026-05-08 20:27 47.54403 -96.94841 32967 ft 511 kts 179°
2026-05-08 20:27 47.50854 -96.94399 32997 ft 509 kts 179°
2026-05-08 20:27 47.43819 -96.93522 32999 ft 504 kts 179°
2026-05-08 20:28 47.36862 -96.92660 32989 ft 504 kts 179°
2026-05-08 20:28 47.29853 -96.91796 32996 ft 504 kts 179°
2026-05-08 20:29 47.22888 -96.90937 32990 ft 504 kts 179°
2026-05-08 20:29 47.15885 -96.90076 32987 ft 504 kts 179°
2026-05-08 20:30 47.08929 -96.89222 32991 ft 503 kts 179°
2026-05-08 20:30 47.01938 -96.88367 32991 ft 503 kts 179°
2026-05-08 20:31 46.94948 -96.87514 32985 ft 503 kts 179°
2026-05-08 20:31 46.87968 -96.86665 32992 ft 503 kts 179°
2026-05-08 20:32 46.81026 -96.85823 32992 ft 503 kts 179°
2026-05-08 20:32 46.74101 -96.84039 33001 ft 509 kts 163°
2026-05-08 20:33 46.67510 -96.80146 32985 ft 511 kts 158°
2026-05-08 20:33 46.61070 -96.75894 32989 ft 512 kts 157°
2026-05-08 20:34 46.54596 -96.71579 32979 ft 512 kts 157°
2026-05-08 20:35 46.44841 -96.65186 32975 ft 512 kts 157°
2026-05-08 20:35 46.38375 -96.60990 32960 ft 512 kts 157°
2026-05-08 20:36 46.31865 -96.56778 32968 ft 511 kts 158°
2026-05-08 20:36 46.25360 -96.52579 32971 ft 511 kts 158°
2026-05-08 20:37 46.18859 -96.48391 32968 ft 511 kts 158°
2026-05-08 20:37 46.12400 -96.44242 32968 ft 511 kts 158°
2026-05-08 20:38 46.05885 -96.40067 32974 ft 511 kts 158°
2026-05-08 20:38 45.99404 -96.35925 32983 ft 511 kts 158°
2026-05-08 20:39 45.92887 -96.31768 32990 ft 509 kts 158°
2026-05-08 20:39 45.86462 -96.27677 32985 ft 501 kts 158°
2026-05-08 20:40 45.80123 -96.23660 32982 ft 501 kts 158°
2026-05-08 20:40 45.73729 -96.19618 32982 ft 500 kts 158°
2026-05-08 20:41 45.67395 -96.15622 32961 ft 499 kts 158°
2026-05-08 20:41 45.61015 -96.11606 32941 ft 499 kts 158°
2026-05-08 20:42 45.54687 -96.07633 32953 ft 499 kts 158°
2026-05-08 20:42 45.48318 -96.03643 32944 ft 499 kts 158°
2026-05-08 20:43 45.41993 -95.99690 32945 ft 499 kts 158°
2026-05-08 20:43 45.35631 -95.95725 32976 ft 498 kts 158°
2026-05-08 20:44 45.29296 -95.91787 32971 ft 498 kts 158°
2026-05-08 20:44 45.22927 -95.87836 32950 ft 499 kts 159°
2026-05-08 20:45 45.16591 -95.83917 32977 ft 499 kts 159°
2026-05-08 20:45 45.10187 -95.79964 32985 ft 499 kts 159°
2026-05-08 20:46 45.03862 -95.76069 32972 ft 499 kts 159°
2026-05-08 20:46 44.97497 -95.72162 32973 ft 495 kts 159°
2026-05-08 20:47 44.91189 -95.68297 32973 ft 493 kts 159°
2026-05-08 20:47 44.84880 -95.64438 32960 ft 493 kts 159°
2026-05-08 20:48 44.78619 -95.60619 32990 ft 492 kts 159°
2026-05-08 20:48 44.72319 -95.56787 32988 ft 492 kts 159°
2026-05-08 20:49 44.66055 -95.52985 32992 ft 492 kts 159°
2026-05-08 20:49 44.59746 -95.49166 32990 ft 493 kts 159°
2026-05-08 20:50 44.53481 -95.45382 32990 ft 493 kts 159°
2026-05-08 20:50 44.47165 -95.41575 32978 ft 493 kts 160°
2026-05-08 20:51 44.40849 -95.37778 32983 ft 493 kts 160°
2026-05-08 20:51 44.34576 -95.34014 32982 ft 493 kts 160°
2026-05-08 20:52 44.28271 -95.30240 32966 ft 490 kts 160°
2026-05-08 20:52 44.22048 -95.26525 32981 ft 489 kts 160°
2026-05-08 20:53 44.15783 -95.22794 32983 ft 489 kts 160°
2026-05-08 20:53 44.09533 -95.19078 32976 ft 482 kts 160°
2026-05-08 20:54 44.03414 -95.15448 32990 ft 479 kts 160°
2026-05-08 20:54 43.97294 -95.11830 32994 ft 479 kts 161°
2026-05-08 20:55 43.91045 -95.08634 32971 ft 475 kts 168°
2026-05-08 20:55 43.84704 -95.06246 32996 ft 473 kts 170°
2026-05-08 20:56 43.78314 -95.03992 32992 ft 472 kts 170°
2026-05-08 20:56 43.71967 -95.01772 32965 ft 472 kts 170°
2026-05-08 20:57 43.66661 -94.99905 32988 ft 471 kts 170°
2026-05-08 20:57 43.60302 -94.97662 32991 ft 470 kts 170°
2026-05-08 20:58 43.53992 -94.95438 32997 ft 470 kts 170°
2026-05-08 20:58 43.47675 -94.93226 32993 ft 464 kts 171°
2026-05-08 20:59 43.41409 -94.91023 32991 ft 463 kts 171°
2026-05-08 20:59 43.35189 -94.88844 32992 ft 463 kts 171°
2026-05-08 21:00 43.28931 -94.86657 32993 ft 463 kts 171°
2026-05-08 21:00 43.22730 -94.84493 33001 ft 462 kts 172°
2026-05-08 21:01 43.16482 -94.82322 33011 ft 462 kts 172°
2026-05-08 21:01 43.10283 -94.80172 33013 ft 461 kts 172°
2026-05-08 21:02 43.04060 -94.78017 33011 ft 459 kts 172°
2026-05-08 21:02 42.97844 -94.75868 33035 ft 459 kts 172°
2026-05-08 21:03 42.91673 -94.73741 33010 ft 459 kts 172°
2026-05-08 21:03 42.85478 -94.71609 33042 ft 459 kts 172°
2026-05-08 21:04 42.79289 -94.69483 33041 ft 458 kts 172°
2026-05-08 21:04 42.73134 -94.67374 33043 ft 458 kts 172°
2026-05-08 21:05 42.66936 -94.65255 33047 ft 458 kts 172°
2026-05-08 21:05 42.60742 -94.63141 33040 ft 458 kts 172°
2026-05-08 21:06 42.54574 -94.61040 33038 ft 458 kts 172°
2026-05-08 21:06 42.48371 -94.58930 33043 ft 458 kts 172°
2026-05-08 21:07 42.42225 -94.56846 33054 ft 457 kts 173°
2026-05-08 21:07 42.36052 -94.54757 33048 ft 455 kts 173°
2026-05-08 21:08 42.29941 -94.52691 33047 ft 454 kts 173°
2026-05-08 21:08 42.23809 -94.50622 33056 ft 453 kts 173°
2026-05-08 21:09 42.17687 -94.48561 33062 ft 453 kts 173°
2026-05-08 21:09 42.11594 -94.46516 33057 ft 453 kts 173°
2026-05-08 21:10 42.05480 -94.44466 33051 ft 451 kts 172°
2026-05-08 21:10 41.99423 -94.42440 33041 ft 451 kts 173°
2026-05-08 21:11 41.93326 -94.40405 33029 ft 451 kts 173°
2026-05-08 21:11 41.87266 -94.38386 33018 ft 449 kts 173°
2026-05-08 21:12 41.81212 -94.36369 33016 ft 447 kts 173°
2026-05-08 21:12 41.75157 -94.34360 33021 ft 447 kts 173°
2026-05-08 21:13 41.69102 -94.32356 32979 ft 447 kts 173°
2026-05-08 21:13 41.63110 -94.30374 33031 ft 444 kts 173°
2026-05-08 21:14 41.57096 -94.28388 33039 ft 443 kts 173°
2026-05-08 21:14 41.51124 -94.26423 33049 ft 443 kts 173°
2026-05-08 21:15 41.45124 -94.24451 33051 ft 443 kts 173°
2026-05-08 21:15 41.39172 -94.22498 33058 ft 442 kts 173°
2026-05-08 21:16 41.33184 -94.20537 33060 ft 442 kts 173°
2026-05-08 21:16 41.27208 -94.18586 33059 ft 441 kts 173°
2026-05-08 21:17 41.21269 -94.16645 33062 ft 438 kts 174°
2026-05-08 21:17 41.15390 -94.14729 33066 ft 438 kts 174°
2026-05-08 21:18 41.09458 -94.12801 33067 ft 437 kts 174°
2026-05-08 21:18 41.03571 -94.10891 33058 ft 437 kts 174°
2026-05-08 21:19 40.97654 -94.08975 33063 ft 437 kts 174°
2026-05-08 21:19 40.91743 -94.07066 33062 ft 436 kts 174°
2026-05-08 21:20 40.85869 -94.05170 33080 ft 437 kts 174°
2026-05-08 21:20 40.79961 -94.03267 33071 ft 436 kts 174°
2026-05-08 21:21 40.74057 -94.01370 33082 ft 436 kts 174°
2026-05-08 21:21 40.68156 -93.99476 33081 ft 436 kts 174°
2026-05-08 21:22 40.62300 -93.97600 33084 ft 436 kts 174°
2026-05-08 21:22 40.56505 -93.94817 33084 ft 446 kts 164°
2026-05-08 21:23 40.50871 -93.91442 33088 ft 448 kts 162°
2026-05-08 21:23 40.45224 -93.87943 33088 ft 448 kts 162°
2026-05-08 21:24 40.39600 -93.84471 33071 ft 447 kts 162°
2026-05-08 21:24 40.33943 -93.81009 33095 ft 446 kts 163°
2026-05-08 21:25 40.28347 -93.77601 33097 ft 444 kts 163°
2026-05-08 21:25 40.22735 -93.74192 33108 ft 443 kts 163°
2026-05-08 21:26 40.17163 -93.70814 33097 ft 442 kts 163°
2026-05-08 21:26 40.11585 -93.67435 33111 ft 440 kts 163°
2026-05-08 21:27 40.06020 -93.64073 33113 ft 439 kts 163°
2026-05-08 21:27 40.00494 -93.60741 33113 ft 440 kts 163°
2026-05-08 21:28 39.94933 -93.57393 33117 ft 439 kts 163°
2026-05-08 21:28 39.89392 -93.54060 33115 ft 438 kts 163°
2026-05-08 21:29 39.83886 -93.50756 33121 ft 438 kts 163°
2026-05-08 21:29 39.78338 -93.47433 33124 ft 438 kts 163°
2026-05-08 21:30 39.72796 -93.44118 33121 ft 438 kts 163°
2026-05-08 21:30 39.67297 -93.40835 33122 ft 437 kts 163°
2026-05-08 21:31 39.61758 -93.37535 33127 ft 437 kts 163°
2026-05-08 21:31 39.56262 -93.34265 33127 ft 437 kts 163°
2026-05-08 21:32 39.50719 -93.30974 33120 ft 437 kts 163°
2026-05-08 21:32 39.45257 -93.27483 33125 ft 442 kts 159°
2026-05-08 21:33 39.39855 -93.23582 33125 ft 443 kts 159°
2026-05-08 21:33 39.34513 -93.19649 33127 ft 444 kts 158°
2026-05-08 21:34 39.29138 -93.15692 33119 ft 443 kts 159°
2026-05-08 21:34 39.23789 -93.11775 33129 ft 443 kts 159°
2026-05-08 21:35 39.18417 -93.07853 33127 ft 443 kts 159°
2026-05-08 21:35 39.13046 -93.03941 33132 ft 443 kts 160°
2026-05-08 21:36 39.07699 -93.00054 33096 ft 443 kts 160°
2026-05-08 21:36 39.02323 -92.96148 33135 ft 442 kts 160°
2026-05-08 21:37 38.96960 -92.92258 33132 ft 442 kts 160°
2026-05-08 21:37 38.91627 -92.88399 33134 ft 442 kts 160°
2026-05-08 21:38 38.86315 -92.84564 33137 ft 442 kts 160°
2026-05-08 21:38 38.81270 -92.80924 33140 ft 441 kts 160°
2026-05-08 21:39 38.76238 -92.77300 33142 ft 441 kts 160°
2026-05-08 21:39 38.71172 -92.73660 33149 ft 441 kts 160°
2026-05-08 21:40 38.66114 -92.70032 33155 ft 441 kts 160°
2026-05-08 21:40 38.61041 -92.66395 33125 ft 441 kts 160°
2026-05-08 21:41 38.52937 -92.60608 33136 ft 445 kts 160°
2026-05-08 21:41 38.47529 -92.56747 33137 ft 445 kts 160°
2026-05-08 21:42 38.42149 -92.52912 33138 ft 445 kts 160°
2026-05-08 21:42 38.36742 -92.49067 33129 ft 445 kts 160°
2026-05-08 21:43 38.31328 -92.45226 33134 ft 445 kts 160°
2026-05-08 21:43 38.25915 -92.41392 33126 ft 445 kts 160°
2026-05-08 21:44 38.20540 -92.37589 33121 ft 445 kts 160°
2026-05-08 21:44 38.15125 -92.33764 33102 ft 445 kts 161°
2026-05-08 21:45 38.09677 -92.29931 33127 ft 448 kts 161°
2026-05-08 21:45 38.04206 -92.26083 33128 ft 450 kts 161°
2026-05-08 21:46 37.98723 -92.22230 33128 ft 451 kts 161°
2026-05-08 21:46 37.93269 -92.18403 33061 ft 451 kts 161°
2026-05-08 21:47 37.87764 -92.14548 33089 ft 451 kts 162°
2026-05-08 21:47 37.82298 -92.10730 33085 ft 451 kts 162°
2026-05-08 21:48 37.76741 -92.07165 33095 ft 442 kts 168°
2026-05-08 21:48 37.72011 -92.04708 33095 ft 440 kts 169°
2026-05-08 21:49 37.66309 -92.01838 33094 ft 439 kts 169°
2026-05-08 21:49 37.60665 -91.99018 33099 ft 438 kts 169°
2026-05-08 21:50 37.54984 -91.96189 33100 ft 438 kts 169°
2026-05-08 21:50 37.49309 -91.93370 33112 ft 438 kts 169°
2026-05-08 21:51 37.43628 -91.90551 33112 ft 438 kts 170°
2026-05-08 21:51 37.37986 -91.87761 33118 ft 438 kts 169°
2026-05-08 21:52 37.32309 -91.84951 33118 ft 438 kts 169°
2026-05-08 21:52 37.26625 -91.82143 33125 ft 438 kts 169°
2026-05-08 21:53 37.20977 -91.79359 33091 ft 438 kts 169°
2026-05-08 21:53 37.15272 -91.76554 33129 ft 440 kts 169°
2026-05-08 21:54 37.09557 -91.73746 33129 ft 441 kts 169°
2026-05-08 21:54 37.03877 -91.70959 33131 ft 441 kts 170°
2026-05-08 21:55 36.98158 -91.68158 33132 ft 441 kts 170°
2026-05-08 21:56 36.89557 -91.63955 33127 ft 442 kts 170°
2026-05-08 21:56 36.83859 -91.61175 33132 ft 442 kts 170°
2026-05-08 21:57 36.78119 -91.58381 33135 ft 442 kts 170°
2026-05-08 21:57 36.72379 -91.55589 33106 ft 442 kts 170°
2026-05-08 21:58 36.66639 -91.52802 33138 ft 441 kts 170°
2026-05-08 21:58 36.60950 -91.50047 33140 ft 440 kts 171°
2026-05-08 21:59 36.55226 -91.47277 33139 ft 440 kts 171°
2026-05-08 21:59 36.49522 -91.44523 33147 ft 440 kts 171°
2026-05-08 22:00 36.43815 -91.41769 33139 ft 439 kts 171°
2026-05-08 22:00 36.40982 -91.40636 32826 ft 422 kts 182°
2026-05-08 22:00 36.38137 -91.40470 32151 ft 399 kts 196°
2026-05-08 22:00 36.35335 -91.40643 31415 ft 408 kts 191°
2026-05-08 22:01 36.32462 -91.40504 30702 ft 420 kts 185°
2026-05-08 22:01 36.29525 -91.39872 29983 ft 437 kts 175°
2026-05-08 22:01 36.26629 -91.38691 29160 ft 453 kts 166°
2026-05-08 22:01 36.23876 -91.36556 28332 ft 479 kts 149°
2026-05-08 22:02 36.21410 -91.33710 27552 ft 487 kts 144°
2026-05-08 22:02 36.18988 -91.30743 26784 ft 489 kts 142°
2026-05-08 22:02 36.16567 -91.27820 26024 ft 478 kts 150°
2026-05-08 22:02 36.13774 -91.25789 25315 ft 457 kts 165°
2026-05-08 22:03 36.10846 -91.24328 24611 ft 452 kts 166°
2026-05-08 22:03 36.07970 -91.22874 23931 ft 451 kts 165°
2026-05-08 22:03 36.05097 -91.21318 23201 ft 450 kts 163°
2026-05-08 22:03 36.02252 -91.19702 22408 ft 448 kts 162°
2026-05-08 22:04 35.99435 -91.18057 21621 ft 446 kts 161°
2026-05-08 22:04 35.96639 -91.16401 20872 ft 443 kts 161°
2026-05-08 22:04 35.93864 -91.14744 20138 ft 441 kts 161°
2026-05-08 22:04 35.91106 -91.13091 19417 ft 439 kts 160°
2026-05-08 22:05 35.88391 -91.11461 18729 ft 437 kts 160°
2026-05-08 22:05 35.85687 -91.09834 17979 ft 425 kts 160°
2026-05-08 22:05 35.83070 -91.08256 17194 ft 412 kts 160°
2026-05-08 22:05 35.80522 -91.06726 16414 ft 400 kts 160°
2026-05-08 22:06 35.78080 -91.05266 15667 ft 390 kts 159°
2026-05-08 22:06 35.75657 -91.03820 14944 ft 382 kts 159°
2026-05-08 22:06 35.73283 -91.02405 14220 ft 377 kts 159°
2026-05-08 22:06 35.70933 -91.01005 13491 ft 373 kts 158°
2026-05-08 22:07 35.68607 -90.99620 12757 ft 368 kts 158°
2026-05-08 22:07 35.66318 -90.98257 12332 ft 364 kts 158°
2026-05-08 22:07 35.64045 -90.96904 11939 ft 361 kts 158°
2026-05-08 22:07 35.61787 -90.95562 11591 ft 359 kts 158°
2026-05-08 22:08 35.59542 -90.94228 11207 ft 356 kts 158°
2026-05-08 22:08 35.57318 -90.92907 10848 ft 354 kts 157°
2026-05-08 22:08 35.55136 -90.91611 10478 ft 351 kts 157°
2026-05-08 22:08 35.52940 -90.90308 10238 ft 350 kts 157°
2026-05-08 22:09 35.50771 -90.88957 10184 ft 350 kts 150°
2026-05-08 22:09 35.49073 -90.86880 10179 ft 346 kts 123°
2026-05-08 22:09 35.48142 -90.84155 10191 ft 347 kts 109°
2026-05-08 22:09 35.47412 -90.81360 10187 ft 347 kts 109°
2026-05-08 22:10 35.46622 -90.78550 10187 ft 347 kts 111°
2026-05-08 22:10 35.45778 -90.75762 10175 ft 347 kts 112°
2026-05-08 22:10 35.44903 -90.73001 10181 ft 346 kts 113°
2026-05-08 22:10 35.44008 -90.70255 10182 ft 346 kts 114°
2026-05-08 22:11 35.43115 -90.67555 10187 ft 346 kts 114°
2026-05-08 22:11 35.42203 -90.64814 10187 ft 346 kts 114°
2026-05-08 22:11 35.41317 -90.62062 10185 ft 346 kts 113°
2026-05-08 22:11 35.40445 -90.59310 10163 ft 346 kts 112°
2026-05-08 22:12 35.39572 -90.56552 9904 ft 347 kts 112°
2026-05-08 22:12 35.38700 -90.53806 9502 ft 344 kts 113°
2026-05-08 22:12 35.37834 -90.51083 9113 ft 340 kts 113°
2026-05-08 22:12 35.36987 -90.48422 8732 ft 338 kts 113°
2026-05-08 22:13 35.36134 -90.45744 8354 ft 335 kts 113°
2026-05-08 22:13 35.35288 -90.43095 7986 ft 333 kts 113°
2026-05-08 22:13 35.34448 -90.40459 7607 ft 330 kts 113°
2026-05-08 22:13 35.33611 -90.37844 7270 ft 328 kts 113°
2026-05-08 22:14 35.32787 -90.35268 7027 ft 322 kts 114°
2026-05-08 22:14 35.31981 -90.32755 6787 ft 320 kts 114°
2026-05-08 22:14 35.31171 -90.30228 6558 ft 318 kts 114°
2026-05-08 22:14 35.30366 -90.27718 6314 ft 315 kts 113°
2026-05-08 22:15 35.29566 -90.25227 6055 ft 313 kts 114°
2026-05-08 22:15 35.28769 -90.22749 5810 ft 312 kts 114°
2026-05-08 22:15 35.27977 -90.20289 5557 ft 310 kts 114°
2026-05-08 22:15 35.27188 -90.17836 5311 ft 308 kts 114°
2026-05-08 22:16 35.26404 -90.15402 5060 ft 306 kts 114°
2026-05-08 22:16 35.25634 -90.13013 4829 ft 305 kts 114°
2026-05-08 22:16 35.24857 -90.10606 4541 ft 303 kts 114°
2026-05-08 22:16 35.24086 -90.08217 4215 ft 300 kts 114°
2026-05-08 22:17 35.23319 -90.05848 3879 ft 299 kts 114°
2026-05-08 22:17 35.22554 -90.03486 3558 ft 298 kts 114°
2026-05-08 22:17 35.21783 -90.01143 3259 ft 295 kts 117°
2026-05-08 22:17 35.20499 -89.99269 3169 ft 286 kts 148°
2026-05-08 22:18 35.18687 -89.98519 2952 ft 274 kts 178°
2026-05-08 22:18 35.16810 -89.98672 2625 ft 268 kts 186°
2026-05-08 22:18 35.15050 -89.98912 2259 ft 244 kts 185°
2026-05-08 22:18 35.13439 -89.98960 1959 ft 221 kts 179°
2026-05-08 22:19 35.11993 -89.98888 1698 ft 196 kts 179°
2026-05-08 22:19 35.10692 -89.98870 1458 ft 179 kts 179°
2026-05-08 22:19 35.09509 -89.98844 1224 ft 160 kts 181°
2026-05-08 22:19 35.08474 -89.98821 1010 ft 139 kts 180°
2026-05-08 22:20 35.07569 -89.98803 846 ft 129 kts 180°
2026-05-08 22:20 35.06665 -89.98782 671 ft 130 kts 181°
2026-05-08 22:20 35.05771 -89.98755 473 ft 127 kts 180°
2026-05-08 22:20 35.04869 -89.98736 317 ft 131 kts 180°
2026-05-08 22:21 35.04058 -89.98728 307 ft 87 kts 179°
2026-05-08 22:21 35.03657 -89.98716 319 ft 47 kts 178°
2026-05-08 22:21 35.03352 -89.98710 323 ft 40 kts 172°
2026-05-08 22:21 35.03141 -89.98638 321 ft 19 kts 150°
2026-05-08 22:22 35.03129 -89.98580 320 ft 5 kts 40°
2026-05-08 22:22 35.03154 -89.98570 321 ft 5 kts
2026-05-08 22:22 35.03230 -89.98572 321 ft 15 kts 358°
2026-05-08 22:22 35.03352 -89.98578 323 ft 19 kts 359°
2026-05-08 22:23 35.03484 -89.98581 320 ft 19 kts 358°
2026-05-08 22:23 35.03613 -89.98582 319 ft 18 kts
2026-05-08 22:23 35.03740 -89.98584 316 ft 18 kts 356°
2026-05-08 22:23 35.03875 -89.98593 310 ft 20 kts 358°
2026-05-08 22:24 35.04017 -89.98592 307 ft 20 kts 358°
2026-05-08 22:24 35.04156 -89.98594 305 ft 20 kts
2026-05-08 22:24 35.04294 -89.98597 303 ft 20 kts 360°
2026-05-08 22:24 35.04426 -89.98602 306 ft 18 kts 357°
2026-05-08 22:25 35.04541 -89.98604 305 ft 15 kts 360°
2026-05-08 22:25 35.04643 -89.98606 304 ft 14 kts 358°
2026-05-08 22:25 35.04740 -89.98607 305 ft 13 kts 359°
2026-05-08 22:25 35.04822 -89.98610 305 ft 11 kts 358°
2026-05-08 22:26 35.04901 -89.98609 307 ft 11 kts
2026-05-08 22:26 35.04981 -89.98596 304 ft 15 kts 18°
2026-05-08 22:26 35.05081 -89.98541 302 ft 15 kts 24°
2026-05-08 22:26 35.05181 -89.98511 301 ft 14 kts
2026-05-08 22:27 35.05302 -89.98511 295 ft 16 kts 359°
2026-05-08 22:27 35.05410 -89.98512 294 ft 19 kts
2026-05-08 22:27 35.05550 -89.98512 294 ft 20 kts
2026-05-08 22:27 35.05678 -89.98510 295 ft 17 kts 356°
2026-05-08 22:28 35.05785 -89.98510 296 ft 14 kts
2026-05-08 22:28 35.05868 -89.98508 301 ft 10 kts 358°
2026-05-08 22:28 35.05933 -89.98512 298 ft 9 kts 356°
2026-05-08 22:28 35.05992 -89.98519 299 ft 11 kts 353°
2026-05-08 22:29 35.06078 -89.98531 296 ft 13 kts
2026-05-08 22:29 35.06117 -89.98463 294 ft 10 kts 91°
2026-05-08 22:29 35.06116 -89.98441 294 ft 0 kts 92°